XMM

导读

XMM(全称XMM-牛顿,多镜面X射线空间望远镜),是欧洲空间局(ESA)于1999年12月10日发射的X射线天文卫星,也是ESA彼时发射的体量最大的科学卫星。它配备3架高灵敏度X射线望远镜与光学观测设备,可对深空天体开展长期不间断观测。入轨运行二十余年来,已对超50万个X射线源展开研究,在黑洞、星系团、引力波对应体观测等领域取得诸多突破,极大推动了X射线天文学发展。

基本信息
目录编号:
25989
目录名称:
XMM
国际标识:
1999-066A
轨道中心:
EARTH
卫星名称:
XMM
卫星全名:
--
卫星状态:
在轨 (已飞行9727 天)
发射日期:
1999-12-10 UTC
国别 :
(ESA)
星等 :
--
轨道信息
数据来源 国际轨道数据
星历时间: 2026-07-28T13:43:14+0800
刚刚
查看轨道信息
半长轴: 66940.701km
偏心率: 0.4663591
轨道倾角: 64.269°
近地点辐角 64.153°
升交点赤经 282.458°
平近点角 0.085°
近地点: 29344.158km
远地点: 91780.97km
周期: 2872.732分钟
每日圈数: 0.501265
详细信息
使用方式:
暂无
2D轨道图
3D轨道图
轨道高度分析图
轨道倾角分析图
轨道综合分析图
查看轨道综合分析图